[[{"header":{"parameterUnit":"m.s-1","parameterCategory":1,"la1":30.2991,"la2":30.254,"lo1":-89.0895,"lo2":-89.0444,"dy":0.0017,"dx":0.0017,"nx":28,"ny":28,"refTime":"2024-07-16T03:00:00:Z","depth":0,"parameterNumber":2,"parameterNumberName":"U-component_of_WINDS"},"data":[0,0,0,0,0,0,0,0,0,0,0,0,0,0,0,0,0,0,0,0,0,0,0,0,0,0,0,0,0,0,0,0,0,0,0,0,0,0,0,0,0,0,0,0,0,0,0,0,0,0,0,0,0,0,0,0,0,0,-0.7011,-0.701,0,-0.6948,-0.6947,-0.6946,-0.6895,-0.6895,-0.6894,-0.6894,-0.6829,-0.6827,-0.6826,0,0,0,0,0,0,0,0,0,0,0,0,0,-0.7086,-0.7085,-0.7011,-0.701,-0.7009,-0.6948,-0.6947,-0.6946,-0.6895,-0.6895,-0.6894,-0.6893,-0.6829,-0.6827,-0.6826,0,0,0,0,0,0,0,0,0,0,0,0,0,-0.7041,-0.7085,-0.7011,-0.6976,-0.6973,-0.6948,-0.6947,-0.6946,-0.6895,-0.6895,-0.6894,-0.6893,-0.6829,-0.6828,-0.6826,-0.683,0,0,-0.682,-0.6819,0,0,0,0,0,0,0,0,-0.7044,-0.7039,-0.6982,-0.6979,-0.6974,-0.6928,-0.695,-0.6907,-0.6896,-0.6925,-0.6894,-0.6893,-0.6862,-0.6858,-0.6848,-0.6827,-0.6824,-0.682,-0.6819,-0.6818,-0.6818,0,0,0,0,0,0,0,-0.7047,-0.7041,-0.6986,-0.6981,-0.6977,-0.6964,-0.6957,-0.6941,-0.6899,-0.6922,-0.6918,-0.6911,-0.686,-0.685,-0.6846,-0.6823,-0.682,-0.6818,-0.6817,-0.6816,-0.6803,-0.6804,0,0,0,0,0,0,-0.7056,-0.7044,-0.6988,-0.6984,-0.7008,-0.6963,-0.6955,-0.6944,-0.6899,-0.6891,-0.6912,-0.6909,-0.6853,-0.6848,-0.6843,-0.6845,-0.6818,-0.6816,-0.6815,-0.6802,-0.6803,-0.6804,0,0,0,0,0,0,-0.7057,-0.7051,-0.699,-0.7013,-0.7004,-0.6963,-0.6951,-0.6943,-0.6933,-0.6891,-0.6883,-0.6909,-0.6852,-0.6846,-0.6834,-0.6842,-0.6815,-0.6814,-0.6801,-0.6803,-0.6804,-0.685,0,0,0,0,0,0,-0.706,-0.7052,-0.7053,-0.7013,-0.7003,-0.6982,-0.6951,-0.6943,-0.693,-0.6925,-0.6887,-0.6879,-0.6851,-0.6837,-0.6832,-0.6839,-0.6812,-0.68,-0.6802,-0.6803,-0.6847,-0.6852,-0.6856,0,0,0,0,0,-0.7063,-0.7069,-0.7054,-0.7047,-0.7004,-0.6983,-0.6977,-0.6945,-0.6931,-0.6931,-0.6905,-0.6881,-0.6842,-0.6836,-0.683,-0.6837,-0.68,-0.6801,-0.6803,-0.6845,-0.6851,-0.6856,0,0,0,0,0,0,-0.7111,-0.7063,-0.7046,-0.7039,-0.7016,-0.6974,-0.6974,-0.6952,-0.6932,-0.6929,-0.6889,-0.6881,-0.6873,-0.6854,-0.6848,-0.6839,-0.6818,-0.6818,-0.6852,-0.6857,-0.6862,-0.6867,-0.6811,0,0,0,0,0,-0.7121,-0.7108,-0.7067,-0.7065,-0.7054,-0.7016,-0.7006,-0.6983,-0.6957,-0.6947,-0.6919,-0.6894,-0.6877,-0.6866,-0.6847,-0.6844,-0.6835,-0.6846,-0.6851,-0.6855,-0.6856,-0.6852,-0.6856,-0.681,-0.681,-0.6809,0,0,-0.7142,-0.7114,-0.7108,-0.7074,-0.7053,-0.704,-0.7008,-0.6996,-0.6986,-0.6945,-0.6931,-0.6911,-0.688,-0.6873,-0.6868,-0.6856,-0.6866,-0.6857,-0.686,-0.6859,-0.6854,-0.6859,-0.6863,-0.6811,-0.681,-0.681,0,0,-0.7172,-0.715,-0.7146,-0.7125,-0.7094,-0.7069,-0.7068,-0.703,-0.7014,-0.7001,-0.6969,-0.6957,-0.6927,-0.6907,-0.6893,-0.6915,-0.6892,-0.691,-0.6935,-0.6932,-0.6936,-0.6939,-0.6947,-0.695,-0.6912,-0.6912,-0.6912,0,-0.7202,-0.7181,-0.7147,-0.7136,-0.7122,-0.7084,-0.7079,-0.7061,-0.7025,-0.7016,-0.7004,-0.6966,-0.6943,-0.693,-0.6935,-0.6925,-0.6923,-0.6915,-0.6938,-0.6941,-0.6943,-0.695,-0.6953,-0.6914,-0.6914,-0.6914,-0.6913,0,-0.7219,-0.7205,-0.7205,-0.7172,-0.7158,-0.715,-0.7114,-0.7104,-0.7083,-0.7059,-0.7045,-0.7016,-0.6991,-0.6986,-0.6965,-0.697,-0.6964,-0.6945,-0.6924,-0.6951,-0.6957,-0.6959,-0.6918,-0.6917,-0.6916,-0.6915,0,0,-0.7279,-0.7226,-0.7226,-0.721,-0.7173,-0.7161,-0.7152,-0.7128,-0.712,-0.7096,-0.7087,-0.7063,-0.7045,-0.7029,-0.7005,-0.7003,-0.7023,-0.6984,-0.6983,-0.6992,-0.7026,-0.7041,-0.7044,-0.7007,-0.7007,-0.7008,-0.7029,0,-0.7303,-0.7285,-0.7253,-0.7245,-0.7231,-0.7195,-0.7186,-0.7162,-0.714,-0.7125,-0.71,-0.7084,-0.7062,-0.7052,-0.7048,-0.7021,-0.7029,-0.7019,-0.6998,-0.6998,-0.7007,-0.7048,-0.7063,-0.7084,-0.7031,-0.7031,-0.7032,0,-0.733,-0.7308,-0.7298,-0.7261,-0.7255,-0.7248,-0.7223,-0.7209,-0.7181,-0.7165,-0.7147,-0.7121,-0.7109,-0.7089,-0.7072,-0.7066,-0.7055,-0.7041,-0.7041,-0.7038,-0.7016,-0.7045,-0.709,-0.7093,-0.7035,-0.7035,-0.7034,0,-0.7374,-0.7343,-0.7333,-0.732,-0.7277,-0.7273,-0.7255,-0.7226,-0.7213,-0.7191,-0.7182,-0.7159,-0.7146,-0.7129,-0.7097,-0.7085,-0.7083,-0.7061,-0.7069,-0.707,-0.707,-0.7071,-0.7114,-0.7064,-0.7064,-0.7064,-0.7064,0,-0.7405,-0.7401,-0.7352,-0.7346,-0.734,-0.7303,-0.7298,-0.7276,-0.7251,-0.724,-0.7207,-0.7197,-0.7155,-0.7141,-0.7116,-0.7105,-0.71,-0.7086,-0.7079,-0.7089,-0.7091,-0.7081,-0.7079,-0.7064,-0.7064,-0.7064,-0.7064,0,-0.7454,-0.7422,-0.7408,-0.7368,-0.7358,-0.7355,-0.732,-0.7313,-0.7288,-0.7275,-0.7269,-0.7231,-0.7212,-0.7178,-0.7149,-0.7132,-0.7127,-0.7116,-0.7137,-0.7133,-0.7143,-0.7142,-0.7182,-0.7185,-0.7133,-0.7134,-0.7134,0,-0.7476,-0.7472,-0.7431,-0.7421,-0.7404,-0.7389,-0.7375,-0.7339,-0.7326,-0.7294,-0.729,-0.7269,-0.7249,-0.722,-0.719,-0.7168,-0.7155,-0.7171,-0.7152,-0.7162,-0.7156,-0.7156,-0.7156,-0.7175,-0.7176,-0.7176,-0.7177,0,-0.7519,-0.7503,-0.7485,-0.7461,-0.7446,-0.7426,-0.7404,-0.7397,-0.7356,-0.7344,-0.7324,-0.7309,-0.7279,-0.7258,-0.7232,-0.7212,-0.7188,-0.7183,-0.7184,-0.7194,-0.7206,-0.7199,-0.7148,-0.7182,-0.7182,-0.7181,-0.7181,-0.7181,-0.7555,-0.7549,-0.752,-0.7501,-0.748,-0.746,-0.7451,-0.7425,-0.7408,-0.7381,-0.7361,-0.7342,-0.7313,-0.7275,-0.7257,-0.7242,-0.7231,-0.7232,-0.7232,-0.7233,-0.7237,-0.7208,-0.7237,-0.7237,-0.7237,-0.7237,-0.7236,0,-0.7596,-0.7575,-0.7558,-0.7528,-0.7513,-0.7491,-0.7465,-0.7454,-0.7438,-0.7413,-0.7395,-0.7372,-0.7351,-0.7319,-0.7295,-0.7289,-0.7277,-0.7284,-0.7284,-0.728,-0.7248,-0.725,-0.7294,-0.7294,-0.7294,-0.7294,-0.7294,-0.7294,-0.7616,-0.7605,-0.7585,-0.7563,-0.7542,-0.7524,-0.7511,-0.7492,-0.7472,-0.7448,-0.743,-0.7409,-0.7381,-0.7355,-0.7335,-0.7326,-0.7319,-0.733,-0.7317,-0.7288,-0.7283,-0.7277,-0.7279,-0.7328,-0.7328,-0.735,-0.735,-0.7351]},{"header":{"parameterUnit":"m.s-1","parameterCategory":1,"la1":30.2991,"la2":30.254,"lo1":-89.0895,"lo2":-89.0444,"dy":0.0017,"dx":0.0017,"nx":28,"ny":28,"refTime":"2024-07-16T03:00:00:Z","depth":0,"parameterNumber":3,"parameterNumberName":"V-component_of_WINDS"},"data":[0,0,0,0,0,0,0,0,0,0,0,0,0,0,0,0,0,0,0,0,0,0,0,0,0,0,0,0,0,0,0,0,0,0,0,0,0,0,0,0,0,0,0,0,0,0,0,0,0,0,0,0,0,0,0,0,0,0,5.0861,5.0861,0,5.0857,5.0857,5.0857,5.0857,5.0857,5.0857,5.0858,5.085,5.085,5.0849,0,0,0,0,0,0,0,0,0,0,0,0,0,5.0866,5.0865,5.0861,5.0861,5.0861,5.0857,5.0857,5.0857,5.0857,5.0857,5.0857,5.0858,5.085,5.085,5.0849,0,0,0,0,0,0,0,0,0,0,0,0,0,5.0863,5.0865,5.0861,5.0861,5.086,5.0857,5.0857,5.0857,5.0857,5.0857,5.0857,5.0858,5.085,5.085,5.0849,5.0845,0,0,5.0848,5.0848,0,0,0,0,0,0,0,0,5.0863,5.0863,5.0861,5.0861,5.086,5.0858,5.0856,5.0853,5.0857,5.0858,5.0858,5.0858,5.0852,5.0852,5.0851,5.0845,5.0844,5.0848,5.0848,5.0848,5.0848,0,0,0,0,0,0,0,5.0863,5.0863,5.0859,5.0861,5.086,5.086,5.0859,5.0855,5.0855,5.0858,5.0858,5.0858,5.0852,5.0851,5.085,5.0844,5.0848,5.0848,5.0848,5.0847,5.0835,5.0835,0,0,0,0,0,0,5.0864,5.0863,5.0859,5.0859,5.0862,5.086,5.0859,5.0859,5.0855,5.0854,5.0858,5.0858,5.0852,5.0851,5.085,5.0845,5.0848,5.0847,5.0847,5.0835,5.0835,5.0835,0,0,0,0,0,0,5.0864,5.0863,5.0859,5.0861,5.0861,5.0859,5.0859,5.0858,5.0857,5.0855,5.0854,5.0857,5.0852,5.0851,5.0847,5.0845,5.0847,5.0847,5.0836,5.0835,5.0835,5.0835,0,0,0,0,0,0,5.0864,5.0864,5.0862,5.0861,5.086,5.0857,5.0858,5.0858,5.0857,5.0857,5.0854,5.0853,5.0852,5.0847,5.0846,5.0845,5.0847,5.0836,5.0835,5.0835,5.0836,5.0835,5.0835,0,0,0,0,0,5.0864,5.0861,5.0862,5.0862,5.0859,5.0857,5.0856,5.0856,5.0857,5.0855,5.0854,5.0853,5.0846,5.0847,5.0846,5.0844,5.0836,5.0836,5.0835,5.0836,5.0835,5.0835,0,0,0,0,0,0,5.0861,5.0861,5.0862,5.0859,5.0858,5.0857,5.0855,5.0855,5.0853,5.0853,5.0852,5.0851,5.0847,5.0845,5.0846,5.084,5.0841,5.084,5.0841,5.0841,5.0841,5.0841,5.0846,0,0,0,0,0,5.086,5.0859,5.0859,5.0856,5.0856,5.0856,5.0854,5.0855,5.0853,5.0852,5.085,5.0848,5.0845,5.0843,5.084,5.0836,5.0835,5.0834,5.0834,5.0833,5.0833,5.0831,5.0831,5.0835,5.0835,5.0835,0,0,5.0857,5.0858,5.0857,5.0856,5.0855,5.0853,5.0855,5.0853,5.0852,5.0851,5.0848,5.0847,5.0844,5.084,5.0838,5.0838,5.0832,5.0833,5.0833,5.0833,5.0831,5.0831,5.083,5.0835,5.0835,5.0835,0,0,5.0853,5.0853,5.0851,5.0851,5.085,5.085,5.085,5.0849,5.0849,5.0846,5.0846,5.0844,5.0839,5.0837,5.0836,5.0832,5.0831,5.0831,5.083,5.0828,5.0828,5.0827,5.0826,5.0826,5.0831,5.0831,5.0831,0,5.0849,5.0848,5.0849,5.0848,5.0848,5.0849,5.0847,5.0846,5.0844,5.0844,5.0844,5.0839,5.0837,5.0834,5.0833,5.0832,5.0831,5.0831,5.0828,5.0828,5.0827,5.0826,5.0826,5.0831,5.0831,5.0831,5.0831,0,5.0844,5.0843,5.0842,5.0842,5.0841,5.0839,5.084,5.0839,5.084,5.084,5.0837,5.0835,5.0832,5.0831,5.0831,5.0828,5.0828,5.0828,5.0829,5.0827,5.0826,5.0825,5.0831,5.0831,5.0831,5.0831,0,0,5.0836,5.0838,5.0837,5.0838,5.0838,5.0837,5.0836,5.0835,5.0834,5.0833,5.0831,5.0828,5.0829,5.0827,5.0827,5.0826,5.0823,5.0826,5.0826,5.0826,5.082,5.082,5.0819,5.0823,5.0823,5.0823,5.082,0,5.0831,5.0829,5.0831,5.0829,5.0828,5.0831,5.0829,5.0829,5.0829,5.0828,5.0828,5.0826,5.0827,5.0826,5.0825,5.0824,5.0822,5.0824,5.0821,5.0821,5.0822,5.0819,5.0818,5.0815,5.082,5.082,5.082,0,5.0825,5.0825,5.0824,5.0825,5.0825,5.0824,5.0824,5.0823,5.0823,5.0823,5.0822,5.0823,5.0821,5.0822,5.082,5.0821,5.082,5.082,5.0819,5.0819,5.082,5.0818,5.0814,5.0814,5.0819,5.0819,5.0819,0,5.0819,5.0819,5.0819,5.0819,5.0821,5.082,5.0821,5.0821,5.0821,5.082,5.082,5.0819,5.0818,5.0817,5.0817,5.0818,5.0814,5.0815,5.0814,5.0814,5.0812,5.0812,5.0809,5.0812,5.0812,5.0812,5.0812,0,5.0813,5.0812,5.0816,5.0816,5.0814,5.0817,5.0815,5.0816,5.0816,5.0816,5.0817,5.0816,5.0817,5.0815,5.0815,5.0813,5.0813,5.0813,5.0813,5.0813,5.0813,5.0811,5.0812,5.0812,5.0812,5.0812,5.0812,0,5.0806,5.0809,5.0809,5.0811,5.0812,5.0811,5.0813,5.0812,5.0813,5.0812,5.0812,5.0813,5.0812,5.0813,5.0811,5.0811,5.0809,5.0809,5.0809,5.0809,5.0808,5.0808,5.0803,5.0802,5.0806,5.0806,5.0806,0,5.0802,5.0802,5.0805,5.0806,5.0807,5.0807,5.0807,5.0809,5.081,5.081,5.081,5.0809,5.0809,5.0807,5.0807,5.0806,5.0806,5.0805,5.0806,5.0806,5.0806,5.0807,5.0807,5.0804,5.0804,5.0804,5.0804,0,5.0795,5.0797,5.0798,5.08,5.0801,5.0802,5.0803,5.0803,5.0805,5.0805,5.0805,5.0805,5.0805,5.0804,5.0804,5.0803,5.0804,5.0804,5.0804,5.0803,5.0804,5.0804,5.0808,5.0804,5.0804,5.0804,5.0804,5.0804,5.079,5.079,5.0792,5.0794,5.0795,5.0797,5.0797,5.0798,5.0799,5.08,5.0801,5.0801,5.0801,5.0801,5.0801,5.0801,5.0801,5.08,5.08,5.08,5.08,5.0804,5.08,5.08,5.08,5.08,5.08,0,5.0783,5.0785,5.0786,5.0789,5.079,5.0792,5.0794,5.0794,5.0795,5.0796,5.0796,5.0797,5.0797,5.0797,5.0797,5.0797,5.0797,5.0797,5.0797,5.0797,5.0799,5.08,5.0797,5.0797,5.0797,5.0797,5.0797,5.0797,5.0779,5.078,5.0782,5.0783,5.0785,5.0786,5.0787,5.0789,5.079,5.079,5.0791,5.0792,5.0793,5.0794,5.0794,5.0794,5.0794,5.0793,5.0793,5.0796,5.0796,5.0797,5.0797,5.0793,5.0793,5.0791,5.0791,5.0791]}]]